Location: Ffm
(50.0000°N, 8.5000°E)
Time: 10:10:00
(UTC+01:00)

Envisat - Pass Details

Date: 02 November 2020
Orbit: 764 x 766 km, 98.1° (Epoch: 03 December)

Event Time Altitude Azimuth Distance (km) Brightness Sun altitude
Rises 05:54:37 0° 19° (NNE) 3,243 6.4 -13.7°
Reaches altitude 10° 05:57:05 10° 27° (NNE) 2,312 5.7 -13.3°
Maximum altitude 06:01:51 40° 97° (E) 1,124 4.5 -12.6°
Drops below altitude 10° 06:06:36 10° 166° (SSE) 2,295 5.8 -11.8°
Sets 06:09:02 0° 174° (S) 3,216 6.4 -11.4°
